Location: Newark
(56.0692°N, 115.8617°E)
Time: 05:50:55
(UTC+00:00)

Vanguard 1 Rocket - Visible Passes

Search period start: 06 June 2020 00:00
Search period end: 16 June 2020 00:00
Orbit: 653 x 4224 km, 34.3° (Epoch: 05 June)

Date Brightness Start Highest point End Pass type
(mag) Time Alt. Az. Time Alt. Az. Time Alt. Az.
06 Jun 10.8 13:41:15 10° SSW 13:57:33 23° SSE 14:09:45 10° ESE visible
06 Jun 10.2 16:06:56 10° SW 16:24:18 31° S 16:35:21 10° ESE visible
07 Jun 10.5 14:53:32 10° SW 15:12:02 30° SSE 15:24:34 10° ESE visible
07 Jun 10.1 17:22:26 10° WSW 17:38:22 30° SSW 17:48:16 10° SE visible
08 Jun 10.7 13:41:08 10° SSW 13:59:30 28° SSE 14:13:05 10° ESE visible
08 Jun 10.2 16:08:05 10° SW 16:26:29 33° S 16:38:11 10° SE visible
09 Jun 10.5 14:54:20 10° SW 15:14:06 34° S 15:27:30 10° ESE visible
09 Jun 10.1 17:24:00 10° WSW 17:40:29 31° SSW 17:50:52 10° SE visible
10 Jun 10.7 13:41:31 10° SSW 14:01:24 31° SSE 14:16:08 10° ESE visible
10 Jun 10.3 16:09:24 10° WSW 16:28:35 35° S 16:40:53 10° SE visible
11 Jun 10.5 14:55:24 10° SW 15:16:07 36° S 15:30:16 10° ESE visible
11 Jun 10.2 17:25:41 10° WSW 17:42:31 30° SSW 17:53:18 10° SSE visible
12 Jun 10.7 13:42:16 10° SW 14:03:16 34° SSE 14:19:00 10° ESE visible
12 Jun 10.3 16:10:52 10° WSW 16:30:35 35° SSW 16:43:27 10° SE visible
13 Jun 10.5 14:56:41 10° WSW 15:18:04 38° S 15:32:54 10° ESE visible
13 Jun 10.3 17:27:29 10° WSW 17:44:26 29° SSW 17:55:34 10° SSE visible
14 Jun 10.7 13:43:20 10° SW 14:05:05 37° S 14:21:41 10° ESE visible
14 Jun 10.4 16:12:28 10° WSW 16:32:31 35° SSW 16:45:52 10° SE visible
15 Jun 10.6 14:58:09 10° WSW 15:19:56 38° S 15:35:25 10° SE visible
15 Jun 10.5 17:29:26 10° W 17:46:12 27° SSW 17:57:37 10° SSE visible
